• In Netherlands
  • List of Countries
  • For 7 days
  • Water Temperature
  • Satellite Maps
  • Weather Map
  • Weather Widgets
  • user-avatar
    Login

    Hourly Weather Megri

    Today, 19 August, Saturday

    Time Temperature Precipitation Wind Pressure Humidity
    00:00 +21°C° 0 mm 3 mps 625 mmHg 56%
    01:00 +20°C° 0 mm 3 mps 625 mmHg 58%
    02:00 +20°C° 0 mm 3 mps 625 mmHg 60%
    03:00 +19°C° 0 mm 3 mps 624 mmHg 62%
    04:00 +19°C° 0 mm 3 mps 625 mmHg 64%
    05:00 +19°C° 0 mm 3 mps 625 mmHg 66%
    06:00 +19°C° 0 mm 3 mps 625 mmHg 68%
    07:00 +20°C° 0 mm 3 mps 626 mmHg 61%
    08:00 +22°C° 0 mm 3 mps 626 mmHg 53%
    09:00 +25°C° 0 mm 3 mps 627 mmHg 48%
    10:00 +26°C° 0 mm 3 mps 627 mmHg 43%
    11:00 +27°C° 0 mm 3 mps 627 mmHg 38%
    12:00 +29°C° 0 mm 3 mps 627 mmHg 33%
    13:00 +29°C° 0 mm 4 mps 627 mmHg 32%
    14:00 +30°C° 0 mm 4 mps 627 mmHg 30%
    15:00 +30°C° 0 mm 4 mps 627 mmHg 28%
    16:00 +29°C° 0 mm 4 mps 627 mmHg 31%
    17:00 +28°C° 0 mm 5 mps 627 mmHg 35%
    18:00 +27°C° 0 mm 5 mps 626 mmHg 38%
    19:00 +26°C° 0 mm 5 mps 626 mmHg 40%
    20:00 +23°C° 0 mm 5 mps 626 mmHg 43%
    21:00 +22°C° 0 mm 4 mps 626 mmHg 46%
    22:00 +21°C° 0 mm 4 mps 626 mmHg 48%
    23:00 +20°C° 0 mm 4 mps 626 mmHg 50%

    Tomorrow, 20 August, Sunday

    Time Temperature Precipitation Wind Pressure Humidity
    00:00 +20°C° 0 mm 3 mps 626 mmHg 51%
    01:00 +19°C° 0 mm 3 mps 626 mmHg 53%
    02:00 +19°C° 0 mm 3 mps 625 mmHg 54%
    03:00 +19°C° 0 mm 3 mps 625 mmHg 55%
    04:00 +18°C° 0 mm 3 mps 625 mmHg 55%
    05:00 +18°C° 0 mm 3 mps 625 mmHg 55%
    06:00 +18°C° 0 mm 3 mps 625 mmHg 55%
    07:00 +20°C° 0 mm 3 mps 626 mmHg 48%
    08:00 +22°C° 0 mm 3 mps 627 mmHg 41%
    09:00 +25°C° 0 mm 3 mps 627 mmHg 34%
    10:00 +27°C° 0 mm 3 mps 627 mmHg 31%
    11:00 +28°C° 0 mm 3 mps 627 mmHg 28%
    12:00 +30°C° 0 mm 3 mps 627 mmHg 24%
    13:00 +30°C° 0 mm 3 mps 627 mmHg 23%
    14:00 +32°C° 0 mm 4 mps 627 mmHg 22%
    15:00 +32°C° 0 mm 4 mps 627 mmHg 22%
    16:00 +30°C° 0 mm 4 mps 626 mmHg 24%
    17:00 +29°C° 0 mm 5 mps 626 mmHg 27%
    18:00 +28°C° 0 mm 5 mps 625 mmHg 29%
    19:00 +26°C° 0 mm 5 mps 625 mmHg 32%
    20:00 +25°C° 0 mm 4 mps 625 mmHg 35%
    21:00 +22°C° 0 mm 4 mps 625 mmHg 38%
    22:00 +21°C° 0 mm 4 mps 625 mmHg 38%
    23:00 +21°C° 0 mm 3 mps 625 mmHg 38%

    Day after tomorrow, 21 August, Monday

    Time Temperature Precipitation Wind Pressure Humidity
    00:00 +20°C° 0 mm 3 mps 624 mmHg 38%
    01:00 +20°C° 0 mm 3 mps 624 mmHg 38%
    02:00 +20°C° 0 mm 3 mps 624 mmHg 38%
    03:00 +19°C° 0 mm 2 mps 624 mmHg 38%
    04:00 +19°C° 0 mm 2 mps 624 mmHg 38%
    05:00 +19°C° 0 mm 2 mps 624 mmHg 38%
    06:00 +19°C° 0 mm 2 mps 624 mmHg 37%
    07:00 +21°C° 0 mm 2 mps 625 mmHg 34%
    08:00 +24°C° 0 mm 2 mps 626 mmHg 30%
    09:00 +26°C° 0 mm 3 mps 626 mmHg 27%
    10:00 +27°C° 0 mm 2 mps 626 mmHg 25%
    11:00 +29°C° 0 mm 2 mps 626 mmHg 24%
    12:00 +30°C° 0 mm 2 mps 626 mmHg 22%
    13:00 +31°C° 0 mm 2 mps 626 mmHg 22%
    14:00 +31°C° 0 mm 2 mps 626 mmHg 21%
    15:00 +32°C° 0 mm 2 mps 626 mmHg 21%
    16:00 +31°C° 0 mm 3 mps 625 mmHg 23%
    17:00 +30°C° 0 mm 3 mps 625 mmHg 26%
    18:00 +29°C° 0 mm 3 mps 624 mmHg 29%
    19:00 +27°C° 0 mm 3 mps 624 mmHg 34%
    20:00 +26°C° 0 mm 3 mps 624 mmHg 40%
    21:00 +24°C° 0 mm 3 mps 624 mmHg 45%
    22:00 +22°C° 0 mm 3 mps 624 mmHg 47%
    23:00 +22°C° 0 mm 3 mps 624 mmHg 49%

    22 August, Tuesday

    Time Temperature Precipitation Wind Pressure Humidity
    00:00 +21°C° 0 mm 2 mps 624 mmHg 51%
    01:00 +21°C° 0 mm 2 mps 623 mmHg 52%
    02:00 +20°C° 0 mm 2 mps 623 mmHg 53%
    03:00 +20°C° 0 mm 2 mps 623 mmHg 53%
    04:00 +20°C° 0 mm 2 mps 623 mmHg 53%
    05:00 +20°C° 0 mm 2 mps 623 mmHg 53%
    06:00 +20°C° 0 mm 2 mps 624 mmHg 52%
    07:00 +23°C° 0 mm 2 mps 624 mmHg 45%
    08:00 +25°C° 0 mm 2 mps 625 mmHg 38%
    09:00 +27°C° 0 mm 2 mps 626 mmHg 31%
    10:00 +29°C° 0 mm 2 mps 626 mmHg 27%
    11:00 +30°C° 0 mm 1 mps 626 mmHg 24%
    12:00 +32°C° 0 mm 1 mps 626 mmHg 20%
    13:00 +32°C° 0 mm 1 mps 626 mmHg 19%
    14:00 +33°C° 0 mm 1 mps 625 mmHg 18%
    15:00 +33°C° 0 mm 1 mps 625 mmHg 17%
    16:00 +32°C° 0 mm 2 mps 625 mmHg 19%
    17:00 +31°C° 0 mm 3 mps 624 mmHg 22%
    18:00 +30°C° 0 mm 4 mps 624 mmHg 24%
    19:00 +28°C° 0 mm 4 mps 624 mmHg 29%
    20:00 +27°C° 0 mm 4 mps 624 mmHg 34%
    21:00 +25°C° 0 mm 4 mps 623 mmHg 39%
    22:00 +24°C° 0 mm 3 mps 623 mmHg 40%
    23:00 +24°C° 0 mm 3 mps 623 mmHg 41%

    23 August, Wednesday

    Time Temperature Precipitation Wind Pressure Humidity
    00:00 +22°C° 0 mm 3 mps 623 mmHg 42%
    01:00 +22°C° 0 mm 3 mps 623 mmHg 42%
    02:00 +21°C° 0 mm 3 mps 623 mmHg 43%
    03:00 +21°C° 0 mm 3 mps 623 mmHg 43%
    04:00 +21°C° 0 mm 3 mps 623 mmHg 42%
    05:00 +21°C° 0 mm 3 mps 623 mmHg 42%
    06:00 +20°C° 0 mm 3 mps 624 mmHg 42%
    07:00 +24°C° 0 mm 3 mps 625 mmHg 36%
    08:00 +26°C° 0 mm 3 mps 625 mmHg 31%
    09:00 +28°C° 0 mm 3 mps 626 mmHg 25%
    10:00 +29°C° 0 mm 3 mps 626 mmHg 23%
    11:00 +31°C° 0 mm 3 mps 627 mmHg 21%
    12:00 +33°C° 0 mm 3 mps 627 mmHg 18%
    13:00 +33°C° 0 mm 3 mps 627 mmHg 18%
    14:00 +34°C° 0 mm 4 mps 626 mmHg 18%
    15:00 +34°C° 0 mm 4 mps 626 mmHg 18%
    16:00 +33°C° 0 mm 4 mps 626 mmHg 21%
    17:00 +32°C° 0 mm 4 mps 626 mmHg 24%
    18:00 +30°C° 0 mm 5 mps 625 mmHg 27%
    19:00 +28°C° 0 mm 5 mps 625 mmHg 32%
    20:00 +26°C° 0 mm 4 mps 625 mmHg 36%
    21:00 +23°C° 0 mm 4 mps 625 mmHg 40%
    22:00 +23°C° 0 mm 4 mps 625 mmHg 42%
    23:00 +22°C° 0 mm 3 mps 625 mmHg 43%

    24 August, Thursday

    Time Temperature Precipitation Wind Pressure Humidity
    00:00 +21°C° 0 mm 3 mps 625 mmHg 44%
    01:00 +21°C° 0 mm 3 mps 625 mmHg 45%
    02:00 +20°C° 0 mm 3 mps 625 mmHg 47%
    03:00 +20°C° 0 mm 3 mps 625 mmHg 48%
    04:00 +20°C° 0 mm 3 mps 625 mmHg 48%
    05:00 +20°C° 0 mm 3 mps 626 mmHg 48%
    06:00 +19°C° 0 mm 3 mps 626 mmHg 48%
    07:00 +21°C° 0 mm 3 mps 627 mmHg 42%
    08:00 +24°C° 0 mm 3 mps 627 mmHg 37%
    09:00 +26°C° 0 mm 4 mps 628 mmHg 31%
    10:00 +28°C° 0 mm 4 mps 628 mmHg 28%
    11:00 +29°C° 0 mm 4 mps 628 mmHg 25%
    12:00 +32°C° 0 mm 4 mps 629 mmHg 22%
    13:00 +32°C° 0 mm 5 mps 628 mmHg 22%
    14:00 +32°C° 0 mm 5 mps 628 mmHg 22%
    15:00 +33°C° 0 mm 5 mps 628 mmHg 21%
    16:00 +30°C° 0 mm 5 mps 628 mmHg 24%
    17:00 +29°C° 0 mm 6 mps 627 mmHg 27%
    18:00 +27°C° 0 mm 6 mps 627 mmHg 30%
    19:00 +26°C° 0 mm 5 mps 627 mmHg 32%
    20:00 +23°C° 0 mm 5 mps 627 mmHg 33%
    21:00 +22°C° 0 mm 4 mps 627 mmHg 35%
    22:00 +21°C° 0 mm 4 mps 627 mmHg 34%
    23:00 +20°C° 0 mm 4 mps 627 mmHg 34%
    Show more